Weather History for Stevens Point, WI

Change the Weather History Date:

Saturday, December 21, 2013

  Actual Average Record
Temperature  
Mean Temperature 21 °F -  
Max Temperature 24 °F 26 °F 51 °F (1967)
Min Temperature 18 °F 9 °F -23 °F (1989)
Degree Days  
Heating Degree Days 44    
Moisture  
Dew Point 19 °F    
Average Humidity 91    
Maximum Humidity 97    
Minimum Humidity 77    
Precipitation  
Precipitation 0.00 in - - ()
Sea Level Pressure  
Sea Level Pressure 29.86 in    
Wind  
Wind Speed 4 mph (NE)    
Max Wind Speed 17 mph    
Max Gust Speed 21 mph    
Visibility 7 miles    
Events Fog    
Averages and records for this station are not official NWS values.
T = Trace of Precipitation, MM = Missing Value Source: NWS Daily Summary

Daily Weather History Graph

Daily Weather History Graph

Search for Another Location

Airport:

Trip Planner

Search our weather history database for the weather conditions in past years. The results will help you decide how hot, cold, wet, or windy it might be!

Date:

Astronomy

Dec. 21, 2013 Rise Set
Actual Time 7:31 AM CST 4:21 PM CST
Civil Twilight 6:58 AM CST 4:54 PM CST
Nautical Twilight 6:21 AM CST 5:31 PM CST
Astronomical Twilight 5:45 AM CST 6:07 PM CST
Moon 8:46 PM CST (12/21) 9:49 AM CST (12/21)
Length of Visible Light 9h 56m
Length of Day
8h 49m
Waning Gibbous, 84% of the Moon is Illuminated
Dec 21
Waning Gibbous
Dec 25
Last Quarter
Jan 1
New
Jan 7
First Quarter
Jan 15
Full

Hourly Weather History & Observations

Time (CST) Temp. Windchill Dew Point Humidity Pressure Visibility Wind Dir Wind Speed Gust Speed Precip Events Conditions
12:15 AM 18.9 °F - 17.6 °F 95% 29.81 in 10.0 mi Calm Calm - N/A   Overcast
12:35 AM 18.9 °F 12.1 °F 17.6 °F 95% 29.80 in 10.0 mi NE 4.6 mph - N/A   Overcast
12:55 AM 18.9 °F - 17.6 °F 95% 29.79 in 10.0 mi Calm Calm - N/A   Overcast
1:15 AM 18.9 °F - 17.6 °F 95% 29.81 in 10.0 mi Calm Calm - N/A   Overcast
1:35 AM 19.0 °F - 17.6 °F 94% 29.82 in 10.0 mi Calm Calm - N/A   Overcast
1:55 AM 19.0 °F 13.9 °F 18.0 °F 96% 29.81 in 10.0 mi North 3.5 mph - N/A   Overcast
2:15 AM 19.0 °F - 18.1 °F 96% 29.81 in 10.0 mi Calm Calm - N/A   Overcast
2:35 AM 19.0 °F - 18.1 °F 96% 29.83 in 7.0 mi Calm Calm - N/A   Overcast
2:55 AM 19.0 °F - 18.3 °F 97% 29.84 in 7.0 mi Calm Calm - N/A   Overcast
3:15 AM 19.2 °F - 18.3 °F 96% 29.84 in 5.0 mi Calm Calm - N/A   Overcast
3:35 AM 19.2 °F - 18.3 °F 96% 29.85 in 4.0 mi Calm Calm - N/A   Overcast
3:55 AM 19.4 °F - 18.5 °F 96% 29.84 in 4.0 mi Calm Calm - N/A   Overcast
4:15 AM 19.4 °F - 18.5 °F 96% 29.85 in 5.0 mi Calm Calm - N/A   Overcast
4:35 AM 19.4 °F - 18.5 °F 96% 29.84 in 4.0 mi Calm Calm - N/A   Overcast
4:55 AM 19.4 °F 12.8 °F 18.3 °F 96% 29.83 in 5.0 mi North 4.6 mph - N/A   Overcast
5:15 AM 19.4 °F 12.8 °F 18.3 °F 96% 29.82 in 5.0 mi North 4.6 mph - N/A   Overcast
5:35 AM 19.4 °F 14.3 °F 18.3 °F 96% 29.82 in 4.0 mi NNE 3.5 mph - N/A   Overcast
5:55 AM 19.4 °F 12.8 °F 18.3 °F 96% 29.83 in 5.0 mi NNE 4.6 mph - N/A   Overcast
6:15 AM 19.4 °F 14.3 °F 18.3 °F 96% 29.83 in 5.0 mi North 3.5 mph - N/A   Overcast
6:35 AM 19.4 °F - 18.5 °F 96% 29.85 in 4.0 mi Calm Calm - N/A   Overcast
6:55 AM 19.4 °F - 18.5 °F 96% 29.86 in 4.0 mi Calm Calm - N/A   Overcast
7:15 AM 19.8 °F - 18.5 °F 95% 29.86 in 4.0 mi Calm Calm - N/A   Overcast
7:35 AM 19.8 °F - 18.5 °F 95% 29.87 in 3.0 mi Calm Calm - N/A   Overcast
7:55 AM 19.9 °F 14.9 °F 18.9 °F 96% 29.86 in 1.0 mi NNE 3.5 mph - N/A   Overcast
8:15 AM 19.9 °F 14.9 °F 18.9 °F 96% 29.85 in 0.2 mi NNE 3.5 mph - N/A Fog Light Freezing Fog
8:35 AM 20.3 °F 15.4 °F 19.4 °F 96% 29.86 in 0.5 mi NNE 3.5 mph - N/A Fog Light Freezing Fog
8:55 AM 20.3 °F 12.5 °F 19.4 °F 96% 29.86 in 0.5 mi NNE 5.8 mph - N/A Fog Light Freezing Fog
9:15 AM 21.0 °F 14.6 °F 20.1 °F 96% 29.88 in 0.8 mi NNE 4.6 mph - N/A   Overcast
9:35 AM 21.2 °F 14.9 °F 20.3 °F 96% 29.90 in 1.5 mi North 4.6 mph - N/A   Overcast
9:55 AM 21.6 °F 16.8 °F 20.7 °F 96% 29.91 in 1.2 mi NE 3.5 mph - N/A   Overcast
10:15 AM 21.9 °F 14.5 °F 21.0 °F 96% 29.89 in 1.0 mi NNE 5.8 mph - N/A   Overcast
10:35 AM 22.1 °F 14.7 °F 21.4 °F 97% 29.89 in 1.2 mi NNE 5.8 mph - N/A   Overcast
10:55 AM 22.5 °F 16.3 °F 21.7 °F 97% 29.90 in 2.0 mi North 4.6 mph - N/A   Overcast
11:15 AM 22.6 °F 14.3 °F 21.9 °F 97% 29.88 in 4.0 mi NNE 6.9 mph - N/A   Overcast
11:35 AM 23.0 °F 15.8 °F 22.1 °F 96% 29.86 in 5.0 mi NE 5.8 mph - N/A   Overcast
11:55 AM 23.2 °F 13.3 °F 22.5 °F 97% 29.85 in 7.0 mi NE 9.2 mph - N/A   Overcast
12:15 PM 23.4 °F 15.2 °F 22.6 °F 97% 29.87 in 10.0 mi NE 6.9 mph - N/A   Overcast
12:35 PM 23.4 °F 14.3 °F 22.6 °F 97% 29.88 in 10.0 mi NE 8.1 mph - N/A   Overcast
12:55 PM 23.5 °F 13.7 °F 22.8 °F 97% 29.88 in 10.0 mi NE 9.2 mph - N/A   Overcast
1:15 PM 23.4 °F 14.3 °F 22.6 °F 97% 29.89 in 10.0 mi NE 8.1 mph - N/A   Overcast
1:35 PM 23.5 °F 16.4 °F 22.8 °F 97% 29.89 in 10.0 mi ENE 5.8 mph - N/A   Overcast
1:55 PM 23.7 °F 14.7 °F 22.8 °F 96% 29.89 in 10.0 mi NE 8.1 mph - N/A   Overcast
2:15 PM 23.7 °F 16.6 °F 22.6 °F 96% 29.89 in 10.0 mi ENE 5.8 mph - N/A   Overcast
2:35 PM 23.9 °F 14.2 °F 22.5 °F 94% 29.88 in 10.0 mi NE 9.2 mph - N/A   Overcast
2:55 PM 24.1 °F 15.2 °F 21.4 °F 89% 29.88 in 10.0 mi NE 8.1 mph - N/A   Overcast
3:15 PM 24.3 °F 14.6 °F 21.6 °F 89% 29.88 in 10.0 mi NE 9.2 mph - N/A   Overcast
3:35 PM 24.4 °F 16.5 °F 21.2 °F 87% 29.88 in 10.0 mi NE 6.9 mph - N/A   Overcast
3:55 PM 24.3 °F 16.3 °F 21.2 °F 88% 29.90 in 10.0 mi NNE 6.9 mph - N/A   Overcast
4:15 PM 23.9 °F 15.0 °F 20.8 °F 88% 29.88 in 10.0 mi NNE 8.1 mph - N/A   Overcast
4:35 PM 23.9 °F 16.8 °F 21.0 °F 89% 29.89 in 10.0 mi NNE 5.8 mph - N/A   Overcast
4:55 PM 23.9 °F 15.0 °F 20.7 °F 87% 29.90 in 10.0 mi NNE 8.1 mph - N/A   Overcast
5:15 PM 23.9 °F 15.0 °F 20.7 °F 87% 29.90 in 10.0 mi NE 8.1 mph - N/A   Overcast
5:35 PM 23.7 °F 14.7 °F 20.3 °F 87% 29.89 in 10.0 mi NE 8.1 mph - N/A   Overcast
5:55 PM 23.5 °F 14.5 °F 20.3 °F 87% 29.88 in 10.0 mi NE 8.1 mph - N/A   Overcast
6:15 PM 23.7 °F 14.0 °F 19.9 °F 85% 29.89 in 10.0 mi NNE 9.2 mph - N/A   Overcast
6:35 PM 23.5 °F 14.5 °F 19.4 °F 84% 29.90 in 10.0 mi NE 8.1 mph - N/A   Overcast
6:55 PM 23.5 °F 14.5 °F 18.9 °F 82% 29.89 in 10.0 mi NE 8.1 mph - N/A   Overcast
7:15 PM 23.5 °F 13.7 °F 18.1 °F 80% 29.91 in 10.0 mi NE 9.2 mph - N/A   Overcast
7:35 PM 23.5 °F 13.7 °F 17.8 °F 79% 29.91 in 10.0 mi NE 9.2 mph - N/A   Overcast
7:55 PM 23.4 °F 14.3 °F 17.4 °F 78% 29.91 in 10.0 mi NE 8.1 mph - N/A   Overcast
8:15 PM 23.4 °F 13.5 °F 17.1 °F 77% 29.89 in 10.0 mi NE 9.2 mph - N/A   Overcast
8:35 PM 22.8 °F 11.5 °F 16.7 °F 77% 29.89 in 10.0 mi ENE 11.5 mph - N/A   Overcast
8:55 PM 22.6 °F 12.6 °F 16.7 °F 78% 29.87 in 10.0 mi NE 9.2 mph - N/A   Overcast
9:15 PM 22.3 °F 10.2 °F 16.5 °F 79% 29.86 in 10.0 mi NE 12.7 mph - N/A   Overcast
9:35 PM 22.1 °F 10.6 °F 16.7 °F 80% 29.85 in 10.0 mi NE 11.5 mph 18.4 mph N/A   Overcast
9:55 PM 21.6 °F 7.3 °F 16.2 °F 80% 29.84 in 10.0 mi NE 17.3 mph 20.7 mph N/A   Overcast
10:15 PM 21.6 °F 9.3 °F 16.2 °F 80% 29.83 in 10.0 mi NE 12.7 mph - N/A   Overcast
10:35 PM 21.2 °F 10.1 °F 16.5 °F 82% 29.83 in 10.0 mi NE 10.4 mph - N/A   Overcast
10:55 PM 21.2 °F 9.5 °F 16.7 °F 83% 29.82 in 10.0 mi NNE 11.5 mph - N/A   Overcast
11:15 PM 21.4 °F 9.7 °F 16.7 °F 82% 29.82 in 10.0 mi NNE 11.5 mph - N/A   Overcast
11:35 PM 21.6 °F 10.6 °F 16.9 °F 82% 29.83 in 10.0 mi NNE 10.4 mph - N/A   Overcast
11:55 PM 21.7 °F 13.2 °F 17.1 °F 82% 29.83 in 10.0 mi NNE 6.9 mph - N/A   Overcast